User: anonymous   Login
Location: Unspecified
(0.0000°N, 0.0000°E)
Time: 08:18:26
(UTC+01:00)
Language:

Ariane H10 - Orbit

View from above orbital plane
View from above orbital plane
View from above satellite
View from above satellite

Ground track
Ground track

The orbit data is extracted from the following two-line orbital elements,

1 21815U 91084C   17349.68974001 +.00000046 +00000-0 +34373-3 0  9991
2 21815 004.3117 008.4033 7192857 221.6755 052.3299 02.31855832216567
Epoch (UTC): 15 December 2017 16:33:13
Eccentricity: 0.7192857
inclination: 4.3117°
perigee height: 391 km
apogee height: 35079 km
right ascension of ascending node: 8.4033°
argument of perigee: 221.6755°
revolutions per day: 2.31855832
mean anomaly at epoch: 52.3299°
orbit number at epoch: 21656

The dashed part of the orbit path shows where the satellite is in the earth's shadow,  

DLR